Location: Unspecified
(42.2936°N, 3.1641°W)
Time: 09:15:29
(UTC+01:00)

X-37B - Visible Passes

Search period start: 06 March 2021 00:00
Search period end: 16 March 2021 00:00
Orbit: 383 x 391 km, 45.0° (Epoch: 27 February)

Date Brightness Start Highest point End Pass type
(mag) Time Alt. Az. Time Alt. Az. Time Alt. Az.
09 Mar 3.2 20:36:09 10° S 20:36:15 10° S 20:36:15 10° S visible
10 Mar 3.1 21:12:41 10° SW 21:13:33 16° SW 21:13:33 16° SW visible
11 Mar 2.0 20:14:51 10° SSW 20:17:30 24° SSE 20:18:22 21° ESE visible
12 Mar 0.6 20:52:21 10° WSW 20:55:23 66° S 20:55:23 66° S visible
13 Mar 1.2 19:54:12 10° SW 19:57:14 40° SSE 19:59:58 12° E visible
13 Mar 2.8 21:30:40 10° W 21:32:17 26° W 21:32:17 26° W visible
14 Mar 0.6 20:32:13 10° WSW 20:35:25 79° NNW 20:36:45 32° ENE visible
15 Mar 1.4 21:10:40 10° W 21:13:28 47° NNW 21:13:28 47° NNW visible
